Regional Weather Roundup
Issued by NWS

Home | Current Version | Previous Version | Text Only | Print | Product List | Glossary Off
Versions: 1 2 3 4 5 6 7 8 9 10 11 12 13 14 15 16 17 18 19 20 21 22 23 24 25 26 27 28 29 30 31 32 33 34 35 36 37 38 39 40 41 42 43 44 45 46 47 48 49 50

605
ASUS43 KBIS 241010
RWRND

NORTH DAKOTA REGIONAL WEATHER ROUNDUP
NATIONAL WEATHER SERVICE BISMARCK ND
500 AM CDT SUN JUL 24 2016

NOTE: "FAIR" INDICATES FEW OR NO CLOUDS BELOW 12,000 FEET WITH NO
SIGNIFICANT WEATHER AND/OR OBSTRUCTIONS TO VISIBILITY.


NDZ001>003-009>011-017-241100-
NORTHWEST NORTH DAKOTA

CITY           SKY/WX    TMP DP  RH WIND       PRES   REMARKS
WILLISTON      CLEAR     59  52  77 W10       30.00S
MINOT          CLEAR     66  55  67 W15       29.90F
MINOT AFB      CLEAR     59  56  88 W8        29.90S
$$

NDZ018>021-031>035-040>046-241100-
SOUTHWEST NORTH DAKOTA

CITY           SKY/WX    TMP DP  RH WIND       PRES   REMARKS
BISMARCK       CLEAR     61  57  87 W7        30.00R
DICKINSON      CLEAR     52  49  89 W6        30.03F
GARRISON         N/A     60  57  89 W9        29.95R
HETTINGER ARPT PTCLDY    51  47  86 NW6       30.08F
$$

NDZ004>008-012>016-024-026-027-054-241100-
NORTHEAST NORTH DAKOTA

CITY           SKY/WX    TMP DP  RH WIND       PRES   REMARKS
GRAND FORKS    CLEAR     64  60  87 NW9       29.78R
GRND FRKS AFB  CLEAR     65  60  83 NW13      29.79R
$$

NDZ022-023-025-028>030-036>039-047>053-241100-
SOUTHEAST NORTH DAKOTA

CITY           SKY/WX    TMP DP  RH WIND       PRES   REMARKS
FARGO          CLEAR     64  59  83 W10       29.82R
JAMESTOWN      CLEAR     63  59  87 W7        29.89R
$$





USA.gov is the U.S. government's official web portal to all federal, state and local government web resources and services.